Location: *
(6.0000°S, 32.3997°W)
Time: 19:50:28
(UTC+00:00)

CZ-2D R/B - Pass Details

Date: 01 April 2020
Orbit: 523 x 537 km, 97.4° (Epoch: 27 May)

Event Time Altitude Azimuth Distance (km) Brightness Sun altitude
Rises 20:57:32 0° 159° (SSE) 2,681 6.6 -11.5°
Reaches altitude 10° 20:59:44 10° 152° (SSE) 1,784 5.6 -12.0°
Maximum altitude 21:03:24 43° 79° (E) 754 3.5 -13.0°
Drops below altitude 10° 21:07:01 10° 7° (N) 1,763 5.9 -13.9°
Sets 21:09:10 0° 1° (N) 2,645 6.8 -14.4°
